Вернуться в каталог

STARLINK-33886

АктивенСвязьVLEO
NORAD 63681·PAYLOAD·🇺🇸 United States

Запущен Apr 28, 2025 с Cape Canaveral Space Force Station

Loading…

Ближайшие Пролёты (ближайшие 24 часа)

TLE

СвежийSource: CelesTrak SupGP

Эпоха: Sep 15, 2026, 02:04 UTC

1 63681C 25085T   26258.08659722 -.00030278  00000+0 -10964-2 0  2587
2 63681  43.0025  40.8019 0001685 271.9230  10.2308 15.27600285    17

Отслеживайте STARLINK-33886 в реальном времени с AllMySat

Download on the App Store